Location: Liscomb Game Sanctuary
(45.1633°N, 62.5575°W)
Time: 14:56:27
(UTC-04:00)

Daily predictions for brighter satellites

Satellite Brightness Start Highest point End
(mag) Time Altitude Azimuth Time Altitude Azimuth Time Altitude Azimuth
MOS 1 4.3 18:07:41 10° SSE 18:13:17 67° ENE 18:18:56 10° N
Lacrosse 5 3.4 18:08:37 10° WNW 18:13:20 40° SW 18:18:01 10° SSE
Cosmos 2297 Rocket 2.2 18:08:52 10° SSW 18:14:27 66° ESE 18:20:05 10° NNE
Cosmos 1464 Rocket 4.4 18:09:36 10° N 18:15:18 39° ENE 18:20:59 10° SE
Cosmos 1633 3.5 18:16:13 10° SSE 18:19:13 26° E 18:22:14 10° NNE
FALCON 9 R/B 4.3 18:13:38 10° WSW 18:19:29 46° SSE 18:39:31 10° ESE
SJ-6B 4.3 18:17:34 10° ESE 18:20:09 18° ENE 18:22:46 10° NNE
MOS 1-B Rocket 4.0 18:13:56 10° SSE 18:20:13 80° ENE 18:25:55 10° NNW
H-2A R/B 3.2 18:19:28 10° SE 18:23:07 39° ENE 18:26:47 10° N
COSMO-SKYMED 1 2.6 18:19:07 10° NNE 18:23:30 83° ESE 18:27:50 10° SSW
ATLAS 3B R/B 3.6 18:19:51 10° WSW 18:26:50 51° NW 18:33:33 10° NNE
Iridium 4 Rocket 3.9 18:23:47 10° NNE 18:28:13 33° E 18:32:18 10° SE
ERS-2 2.8 18:26:13 10° SE 18:29:32 33° ENE 18:32:53 10° N
Cosmos 1452 Rocket 3.5 18:24:41 10° NNW 18:29:58 73° ENE 18:35:13 10° SSE
Cosmos 158 Rocket 4.2 18:26:30 10° S 18:31:07 44° ESE 18:35:45 10° NNE
Okean 1 4.2 18:28:10 10° NNE 18:31:40 28° ENE 18:35:07 10° SE
NOSS 3-2 (A) 3.9 18:25:45 10° SW 18:31:42 66° NW 18:38:24 10° NE
CZ-4 R/B 3.6 18:32:35 10° SSW 18:36:09 30° W 18:39:42 10° NW
Cosmos 1812 2.6 18:33:45 10° N 18:37:39 81° E 18:41:32 10° S
SPOT 3 Rocket 3.6 18:33:57 10° SSE 18:39:09 85° ENE 18:44:25 10° NNW
Aureole 3 3.9 18:34:24 10° S 18:40:10 71° E 18:44:40 10° NNE
CZ-2D R/B 4.3 18:39:23 10° SE 18:42:37 26° ENE 18:45:54 10° NNE
Cosmos 2082 3.8 18:38:20 10° SSW 18:43:57 83° WNW 18:49:38 10° NNE
Okean 3 3.3 18:41:38 10° N 18:45:50 82° E 18:50:01 10° S
Meteor 1-18 Rocket 4.2 18:40:17 10° N 18:45:52 65° ENE 18:51:22 10° SSE
Cosmos 1674 Rocket 3.6 18:41:37 10° N 18:45:59 81° W 18:50:18 10° S
Cosmos 1420 Rocket 4.0 18:44:21 10° NNW 18:49:40 86° ENE 18:54:58 10° SSE
Cosmos 2034 Rocket 4.1 18:45:14 10° N 18:51:30 55° ENE 18:57:42 10° SSE
Cosmos 1891 Rocket 4.4 18:46:25 10° N 18:52:37 65° E 18:58:41 10° SSE
Cosmos 921 Rocket 3.2 18:49:29 10° N 18:53:56 53° ENE 18:58:19 10° SE
Cosmos 1908 Rocket 3.5 18:52:19 10° S 18:56:45 67° E 19:01:12 10° NNE
Meteor 1-25 Rocket 4.1 18:51:26 10° S 18:56:57 75° E 19:02:32 10° NNE
Cosmos 405 4.1 18:54:56 10° SSW 18:58:19 46° WNW 19:01:45 10° N
Cosmos 1733 Rocket 4.3 18:58:21 10° SSW 19:02:29 44° WNW 19:06:39 10° N
Meteor 1-11 Rocket 4.5 19:02:19 10° SSE 19:07:02 29° E 19:11:51 10° NNE
EO 1 Del DPAF 3.6 19:03:16 10° N 19:07:05 65° WNW 19:10:51 10° SSW
Tiangong 2 3.8 19:05:23 10° WSW 19:07:11 14° SSW 19:08:59 10° S
Cosmos 44 Rocket 3.9 19:02:12 10° NW 19:07:12 63° WSW 19:12:15 10° SSE
ARGOS Delta rocket 4.2 19:02:49 10° NNE 19:07:23 39° E 19:11:42 10° SSE
FREGAT/IRIS 2.7 19:06:50 10° S 19:09:47 73° WSW 19:12:46 10° NNW
Cosmos 1437 Rocket 2.9 19:06:36 10° S 19:10:32 52° E 19:14:33 10° NNE
USA 215 3.6 19:05:38 16° ENE 19:10:34 44° SE 19:16:44 10° SSW
Gbstr 26 Del rocket 4.0 19:09:39 10° S 19:12:35 22° SE 19:12:35 22° SE
SeaSat 1 2.5 19:10:26 14° SE 19:14:36 59° ENE 19:19:27 10° NNW
Resurs 1-3 4.3 19:14:22 28° E 19:15:34 33° ENE 19:19:31 10° N
Cosmos 1975 Rocket 3.0 19:17:09 10° N 19:21:36 72° E 19:26:03 10° SSE
COSMOS 2455 3.6 19:17:03 10° SSE 19:22:01 28° ESE 19:22:19 27° ESE
CZ-4C R/B 3.4 19:15:37 10° NNW 19:22:01 39° NE 19:25:28 26° E
Envisat 2.9 19:18:07 10° SSE 19:23:08 66° ENE 19:28:11 10° N
Thor Agena Rocket 3.4 19:22:52 10° NNE 19:27:57 64° ESE 19:32:57 10° S
Cosmos 1939 Rocket 3.4 19:28:18 39° ENE 19:28:18 39° ENE 19:32:04 10° N
Resurs 01 Rocket 1.9 19:28:29 38° ESE 19:29:30 45° ENE 19:33:45 10° N
Cosmos 1943 3.6 19:24:28 10° NNW 19:29:48 41° NE 19:31:18 34° E
SL-8 R/B 3.6 19:25:42 10° WSW 19:30:30 82° NNW 19:32:23 37° ENE
USA 32 4.2 19:30:16 10° S 19:35:29 73° W 19:40:44 10° N
Cosmos 1269 Rocket 3.9 19:30:18 10° SSW 19:35:35 87° ESE 19:40:55 10° NNE
Cosmos 1110 Rocket 3.9 19:30:58 10° NNW 19:36:15 67° ENE 19:38:54 29° SE
HJ-1C 4.3 19:32:55 10° S 19:36:15 49° W 19:39:36 10° NNW
Cosmos 494 Rocket 4.2 19:32:46 10° S 19:37:43 45° ESE 19:38:48 39° ENE
YAOGAN 6 3.9 19:40:15 27° NNE 19:40:15 27° NNE 19:42:09 10° N
Cosmos 2227 Rocket 4.3 19:40:32 10° WSW 19:45:10 25° NW 19:49:50 10° N
USA 267 3.6 19:42:43 34° E 19:45:15 52° NNE 19:51:33 10° NW
CENTAUR R/B 2.9 19:41:16 10° SW 19:47:21 65° NW 19:54:24 10° NE
Meteor 1-23 Rocket 4.5 19:42:17 10° N 19:47:54 47° ENE 19:48:30 45° E
SL-16 R/B 4.0 19:43:29 10° NW 19:48:24 31° WSW 19:53:17 10° SSW
Tsikada Rocket 4.0 19:42:36 10° S 19:49:02 86° W 19:55:30 10° N
ATLAS CENTAUR R/B 2.4 19:46:49 10° NNW 19:49:50 34° NNE 19:49:50 34° NNE
SJ-6B 4.1 19:50:59 10° SSW 19:54:31 38° W 19:58:09 10° NNW
Cosmos 1782 Rocket 4.4 19:50:20 10° SSW 19:54:39 51° WNW 19:58:59 10° N
USA 186 3.2 19:56:26 34° NNW 19:56:26 34° NNW 19:58:28 10° NNW
H-2A R/B 4.0 19:59:59 16° NNE 19:59:59 16° NNE 20:01:38 10° NNE
Cosmos 2297 Rocket 4.4 19:54:32 10° W 19:59:00 24° NW 20:03:31 10° N
Meteor 1-13 Rocket 4.3 19:55:52 10° NNW 20:01:25 75° W 20:06:27 12° S
Cosmos 1603 4.0 20:01:43 10° NNW 20:07:19 64° WSW 20:10:05 30° S
Cosmos 1331 Rocket 4.1 20:02:56 10° NNW 20:08:16 76° WSW 20:09:49 46° S
Spot 2 Rocket 3.4 20:12:22 69° S 20:13:01 85° WSW 20:18:07 10° NNW
Geosat 4.0 20:14:11 68° S 20:14:11 68° S 20:18:36 10° SSW
Okean 2 Rocket 3.9 20:10:43 10° SSW 20:14:58 50° WNW 20:19:18 10° N
BREEZE-M DEB (TANK) 4.1 20:13:30 10° W 20:14:37 22° WSW 20:14:37 22° WSW
Cosmos 2263 Rocket 4.0 20:21:44 10° SSW 20:23:05 18° SSW 20:23:05 18° SSW
Cosmos 2279 Rocket 4.0 20:24:12 10° N 20:29:43 67° NNE 20:29:43 67° NNE
USA 215 3.5 20:52:59 60° N 20:53:45 65° NNW 21:00:12 10° WSW
Resurs 01 Rocket 4.1 21:06:02 19° W 21:06:13 19° W 21:09:22 10° NW
COSMOS 2455 3.9 21:01:39 10° SW 21:05:36 39° WSW 21:05:36 39° WSW
CZ-4C R/B 3.1 21:03:58 10° NW 21:10:42 66° WSW 21:10:42 66° WSW
USA 267 4.1 21:30:04 46° W 21:30:04 46° W 21:34:41 10° NW
H-2A R/B 4.5 21:40:37 18° NNW 21:40:37 18° NNW 21:41:56 10° NNW
